DLH11L EDDN-EDDF

Flight info

Callsign DLH11L
Flight time 0h 37m
Altitude 22000
Route SUKAD1G SUKAD DCT PIWAW T159 SPESA SPESA4C
Aircraft A320/M-SDE3FGHIRWY/LB1

Departure

Time 2026-04-14 22:13
Airport Nuremberg Airport (EDDN)

Arrival

Time 2026-04-14 22:50
Airport Frankfurt Main Airport (EDDF)
Time Latitude Longitude Altitude Speed Heading
2026-04-14 21:46 49.49493 11.08044 1035 ft 0 kts 188°
2026-04-14 22:05 49.49505 11.08047 1034 ft 4 kts 185°
2026-04-14 22:06 49.49532 11.08048 1036 ft 4 kts 171°
2026-04-14 22:06 49.49556 11.08035 1038 ft 4 kts 128°
2026-04-14 22:06 49.49562 11.08020 1038 ft 1 kts 98°
2026-04-14 22:06 49.49561 11.08020 1038 ft 0 kts 98°
2026-04-14 22:09 49.49560 11.08037 1038 ft 7 kts 98°
2026-04-14 22:09 49.49551 11.08114 1038 ft 7 kts 96°
2026-04-14 22:09 49.49546 11.08179 1038 ft 5 kts 98°
2026-04-14 22:10 49.49538 11.08259 1039 ft 13 kts 98°
2026-04-14 22:10 49.49604 11.08380 1043 ft 19 kts 44°
2026-04-14 22:10 49.49599 11.08610 1045 ft 21 kts 97°
2026-04-14 22:10 49.49576 11.08844 1048 ft 20 kts 99°
2026-04-14 22:11 49.49556 11.09060 1049 ft 21 kts 97°
2026-04-14 22:11 49.49534 11.09286 1052 ft 21 kts 97°
2026-04-14 22:11 49.49565 11.09436 1055 ft 14 kts 50°
2026-04-14 22:11 49.49629 11.09552 1058 ft 13 kts 37°
2026-04-14 22:12 49.49699 11.09519 1059 ft 12 kts 298°
2026-04-14 22:12 49.49705 11.09479 1059 ft 1 kts 277°
2026-04-14 22:12 49.49705 11.09476 1059 ft 0 kts 277°
2026-04-14 22:12 49.49736 11.09169 1055 ft 70 kts 278°
2026-04-14 22:13 49.49844 11.08062 1045 ft 136 kts 278°
2026-04-14 22:13 49.50005 11.06506 1425 ft 149 kts 280°
2026-04-14 22:13 49.50174 11.04894 2025 ft 156 kts 281°
2026-04-14 22:13 49.50350 11.03212 2556 ft 162 kts 281°
2026-04-14 22:14 49.50537 11.01462 3037 ft 169 kts 281°
2026-04-14 22:14 49.50733 10.99616 3452 ft 184 kts 281°
2026-04-14 22:14 49.50933 10.97508 3667 ft 213 kts 279°
2026-04-14 22:14 49.51151 10.95116 4070 ft 237 kts 279°
2026-04-14 22:15 49.51394 10.92479 4566 ft 260 kts 279°
2026-04-14 22:15 49.51656 10.89670 5384 ft 269 kts 278°
2026-04-14 22:15 49.51926 10.86801 6321 ft 273 kts 278°
2026-04-14 22:15 49.52204 10.83873 6841 ft 276 kts 278°
2026-04-14 22:16 49.52487 10.80931 7633 ft 278 kts 277°
2026-04-14 22:16 49.52768 10.77971 8591 ft 280 kts 277°
2026-04-14 22:16 49.53050 10.74980 9509 ft 284 kts 277°
2026-04-14 22:16 49.53337 10.71959 10396 ft 288 kts 277°
2026-04-14 22:17 49.53635 10.68795 10788 ft 309 kts 277°
2026-04-14 22:17 49.53951 10.65396 11076 ft 332 kts 277°
2026-04-14 22:17 49.54282 10.61872 11674 ft 341 kts 277°
2026-04-14 22:17 49.54627 10.58235 12430 ft 346 kts 278°
2026-04-14 22:18 49.55147 10.54594 13209 ft 350 kts 288°
2026-04-14 22:18 49.56139 10.51149 13985 ft 355 kts 300°
2026-04-14 22:18 49.57544 10.47990 14673 ft 358 kts 306°
2026-04-14 22:18 49.59001 10.44888 15351 ft 362 kts 305°
2026-04-14 22:19 49.60487 10.41691 16028 ft 365 kts 305°
2026-04-14 22:19 49.63467 10.35239 17344 ft 372 kts 304°
2026-04-14 22:19 49.64974 10.31974 18012 ft 376 kts 304°
2026-04-14 22:20 49.66500 10.28673 18669 ft 379 kts 304°
2026-04-14 22:20 49.68039 10.25343 19219 ft 383 kts 304°
2026-04-14 22:20 49.69589 10.21979 19798 ft 386 kts 304°
2026-04-14 22:20 49.71131 10.18625 20368 ft 389 kts 304°
2026-04-14 22:21 49.72704 10.15200 20939 ft 393 kts 305°
2026-04-14 22:21 49.74294 10.11736 21510 ft 396 kts 305°
2026-04-14 22:21 49.75892 10.08254 22061 ft 399 kts 305°
2026-04-14 22:21 49.77501 10.04738 22240 ft 401 kts 305°
2026-04-14 22:22 49.79124 10.01185 22273 ft 406 kts 305°
2026-04-14 22:22 49.80754 9.97611 22269 ft 407 kts 305°
2026-04-14 22:22 49.82381 9.94038 22267 ft 407 kts 305°
2026-04-14 22:22 49.84013 9.90455 22268 ft 406 kts 305°
2026-04-14 22:23 49.85639 9.86878 22262 ft 407 kts 304°
2026-04-14 22:23 49.87270 9.83285 22263 ft 407 kts 304°
2026-04-14 22:23 49.88822 9.79636 22266 ft 406 kts 298°
2026-04-14 22:23 49.90017 9.75658 22265 ft 406 kts 292°
2026-04-14 22:24 49.91083 9.71609 22264 ft 406 kts 291°
2026-04-14 22:24 49.91959 9.67459 22262 ft 405 kts 282°
2026-04-14 22:24 49.92310 9.63146 22154 ft 399 kts 272°
2026-04-14 22:24 49.92176 9.58823 20945 ft 408 kts 261°
2026-04-14 22:25 49.91464 9.54571 19642 ft 407 kts 249°
2026-04-14 22:25 49.90380 9.50527 18374 ft 405 kts 246°
2026-04-14 22:25 49.89296 9.46504 16974 ft 403 kts 247°
2026-04-14 22:25 49.88236 9.42508 15664 ft 401 kts 248°
2026-04-14 22:26 49.87441 9.38376 14384 ft 398 kts 258°
2026-04-14 22:26 49.87139 9.34127 13033 ft 395 kts 268°
2026-04-14 22:26 49.87318 9.29915 11697 ft 390 kts 278°
2026-04-14 22:26 49.87960 9.25895 10855 ft 374 kts 286°
2026-04-14 22:27 49.88682 9.22229 10535 ft 346 kts 285°
2026-04-14 22:27 49.89344 9.18765 10379 ft 316 kts 285°
2026-04-14 22:27 49.89935 9.15624 10255 ft 291 kts 285°
2026-04-14 22:27 49.90475 9.12737 10266 ft 279 kts 284°
2026-04-14 22:28 49.91012 9.09864 10263 ft 276 kts 284°
2026-04-14 22:28 49.91546 9.07012 10266 ft 275 kts 284°
2026-04-14 22:28 49.92082 9.04159 10268 ft 275 kts 284°
2026-04-14 22:28 49.92622 9.01309 10267 ft 275 kts 285°
2026-04-14 22:29 49.93166 8.98465 10269 ft 275 kts 285°
2026-04-14 22:29 49.93712 8.95622 10268 ft 275 kts 285°
2026-04-14 22:29 49.94255 8.92779 10268 ft 275 kts 285°
2026-04-14 22:29 49.94796 8.89932 10261 ft 275 kts 285°
2026-04-14 22:30 49.95336 8.87084 10266 ft 275 kts 284°
2026-04-14 22:30 49.95875 8.84234 10277 ft 274 kts 284°
2026-04-14 22:30 49.96412 8.81394 10271 ft 274 kts 284°
2026-04-14 22:30 49.96938 8.78612 10276 ft 274 kts 284°
2026-04-14 22:31 49.97358 8.75735 10274 ft 273 kts 276°
2026-04-14 22:31 49.97517 8.72802 10278 ft 272 kts 269°
2026-04-14 22:31 49.97414 8.69876 10272 ft 271 kts 261°
2026-04-14 22:31 49.97055 8.67009 10265 ft 270 kts 253°
2026-04-14 22:32 49.96456 8.64248 10268 ft 269 kts 248°
2026-04-14 22:32 49.96072 8.62665 10275 ft 269 kts 248°
2026-04-14 22:32 49.95491 8.60252 10270 ft 269 kts 248°
2026-04-14 22:32 49.94635 8.56703 10277 ft 269 kts 248°
2026-04-14 22:33 49.93980 8.53987 10256 ft 268 kts 248°
2026-04-14 22:33 49.93333 8.51306 10080 ft 260 kts 248°
2026-04-14 22:33 49.92707 8.48705 9790 ft 256 kts 249°
2026-04-14 22:33 49.92085 8.46118 9433 ft 255 kts 249°
2026-04-14 22:34 49.91468 8.43548 9066 ft 254 kts 249°
2026-04-14 22:34 49.90850 8.40986 8684 ft 253 kts 249°
2026-04-14 22:34 49.90228 8.38437 8314 ft 252 kts 249°
2026-04-14 22:34 49.89617 8.35927 7942 ft 251 kts 249°
2026-04-14 22:35 49.89006 8.33399 7571 ft 250 kts 249°
2026-04-14 22:35 49.88396 8.30873 7210 ft 249 kts 249°
2026-04-14 22:35 49.87787 8.28359 6849 ft 248 kts 249°
2026-04-14 22:35 49.87178 8.25857 6464 ft 248 kts 249°
2026-04-14 22:36 49.86571 8.23359 6085 ft 247 kts 249°
2026-04-14 22:36 49.85967 8.20874 5690 ft 246 kts 249°
2026-04-14 22:36 49.85365 8.18399 5305 ft 245 kts 249°
2026-04-14 22:36 49.84763 8.15933 4918 ft 245 kts 249°
2026-04-14 22:37 49.84161 8.13469 4535 ft 244 kts 250°
2026-04-14 22:37 49.83564 8.11024 4175 ft 242 kts 250°
2026-04-14 22:37 49.82971 8.08602 3996 ft 240 kts 250°
2026-04-14 22:37 49.82376 8.06172 4004 ft 242 kts 250°
2026-04-14 22:38 49.81781 8.03741 4009 ft 242 kts 250°
2026-04-14 22:38 49.81185 8.01304 4010 ft 242 kts 250°
2026-04-14 22:38 49.80594 7.98897 4010 ft 242 kts 250°
2026-04-14 22:38 49.79994 7.96466 4010 ft 242 kts 250°
2026-04-14 22:39 49.79394 7.94035 4011 ft 242 kts 250°
2026-04-14 22:39 49.78793 7.91605 4008 ft 242 kts 250°
2026-04-14 22:39 49.78200 7.89174 4007 ft 241 kts 252°
2026-04-14 22:39 49.77963 7.87469 4005 ft 240 kts 267°
2026-04-14 22:40 49.78163 7.84931 4012 ft 238 kts 290°
2026-04-14 22:40 49.78964 7.82751 4008 ft 237 kts 312°
2026-04-14 22:40 49.80273 7.81185 4009 ft 236 kts 335°
2026-04-14 22:41 49.84357 7.81180 4006 ft 236 kts 30°
2026-04-14 22:41 49.85522 7.82894 4007 ft 230 kts 56°
2026-04-14 22:41 49.86185 7.85143 4005 ft 231 kts 71°
2026-04-14 22:42 49.86676 7.87377 4010 ft 231 kts 69°
2026-04-14 22:42 49.87233 7.89712 4013 ft 231 kts 68°
2026-04-14 22:42 49.87808 7.92035 4009 ft 231 kts 68°
2026-04-14 22:42 49.88389 7.94360 4008 ft 231 kts 68°
2026-04-14 22:43 49.88970 7.96686 4010 ft 231 kts 68°
2026-04-14 22:43 49.89546 7.99010 4008 ft 232 kts 68°
2026-04-14 22:43 49.90122 8.01342 4006 ft 232 kts 68°
2026-04-14 22:43 49.90695 8.03685 4010 ft 232 kts 68°
2026-04-14 22:44 49.91268 8.06029 4007 ft 232 kts 68°
2026-04-14 22:44 49.91841 8.08371 4008 ft 232 kts 68°
2026-04-14 22:44 49.92413 8.10711 4005 ft 232 kts 68°
2026-04-14 22:44 49.92987 8.13059 4005 ft 232 kts 68°
2026-04-14 22:45 49.93559 8.15404 4010 ft 233 kts 68°
2026-04-14 22:45 49.94132 8.17752 4002 ft 233 kts 68°
2026-04-14 22:45 49.94698 8.20076 4007 ft 233 kts 68°
2026-04-14 22:45 49.95269 8.22424 4007 ft 233 kts 68°
2026-04-14 22:46 49.95842 8.24779 4005 ft 233 kts 68°
2026-04-14 22:46 49.96411 8.27126 4000 ft 233 kts 68°
2026-04-14 22:46 49.96974 8.29449 3798 ft 227 kts 68°
2026-04-14 22:46 49.97527 8.31730 3513 ft 225 kts 68°
2026-04-14 22:47 49.98070 8.33973 3201 ft 217 kts 68°
2026-04-14 22:47 49.98589 8.36121 2928 ft 208 kts 67°
2026-04-14 22:47 49.99089 8.38191 2645 ft 201 kts 67°
2026-04-14 22:47 49.99569 8.40183 2375 ft 191 kts 67°
2026-04-14 22:48 50.00011 8.42019 2144 ft 173 kts 66°
2026-04-14 22:48 50.00417 8.43705 1905 ft 159 kts 66°
2026-04-14 22:48 50.00786 8.45236 1677 ft 146 kts 66°
2026-04-14 22:48 50.01134 8.46680 1424 ft 140 kts 68°
2026-04-14 22:49 50.01467 8.48082 1147 ft 136 kts 68°
2026-04-14 22:49 50.01803 8.49438 899 ft 133 kts 68°
2026-04-14 22:49 50.02121 8.50758 735 ft 127 kts 70°
2026-04-14 22:49 50.02420 8.52025 565 ft 123 kts 68°
2026-04-14 22:50 50.02720 8.53261 404 ft 122 kts 69°
2026-04-14 22:50 50.03023 8.54539 349 ft 115 kts 70°
2026-04-14 22:50 50.03245 8.55462 346 ft 66 kts 70°
2026-04-14 22:50 50.03347 8.55889 346 ft 26 kts 69°
2026-04-14 22:51 50.03412 8.56152 347 ft 26 kts 66°
2026-04-14 22:51 50.03531 8.56363 349 ft 26 kts 39°
2026-04-14 22:51 50.03658 8.56527 349 ft 19 kts 40°
2026-04-14 22:51 50.03716 8.56601 346 ft 0 kts 38°
2026-04-14 22:55 50.03719 8.56605 346 ft 3 kts 38°
2026-04-14 22:55 50.03765 8.56643 354 ft 12 kts 18°
2026-04-14 22:56 50.03875 8.56677 346 ft 20 kts 11°
2026-04-14 22:56 50.03987 8.56712 346 ft 0 kts 12°
2026-04-14 22:56 50.04017 8.56721 346 ft 12 kts
2026-04-14 22:56 50.04098 8.56723 355 ft 11 kts
2026-04-14 22:57 50.04169 8.56764 354 ft 11 kts 22°
2026-04-14 22:57 50.04240 8.56793 346 ft 10 kts 11°
2026-04-14 22:57 50.04307 8.56813 346 ft 9 kts 11°
2026-04-14 22:57 50.04367 8.56832 346 ft 9 kts 11°
2026-04-14 22:58 50.04425 8.56848 348 ft 8 kts
2026-04-14 22:58 50.04476 8.56859 350 ft 7 kts 11°
2026-04-14 22:58 50.04516 8.56856 353 ft 5 kts 321°
2026-04-14 22:58 50.04527 8.56813 347 ft 4 kts 285°
2026-04-14 22:59 50.04533 8.56776 353 ft 3 kts 288°
2026-04-14 22:59 50.04540 8.56750 351 ft 0 kts 294°
2026-04-14 22:59 50.04540 8.56748 351 ft 0 kts 294°